Location: Observatorio del Centro Ecologico de Sonora
(29.0667°N, 110.9333°W)
Time: 07:45:28
(UTC-07:00)

ISS - Visible Passes

Search period start: 24 July 2014 00:00
Search period end: 03 August 2014 00:00
Orbit: 411 x 419 km, 51.6° (Epoch: 24 July)

Date Brightness Start Highest point End Pass type
(mag) Time Alt. Az. Time Alt. Az. Time Alt. Az.
01 Aug -0.5 04:44:56 10° NNW 04:47:38 22° NE 04:50:20 10° E visible
01 Aug -1.5 19:47:19 10° SSE 19:49:07 14° SE 19:50:55 10° E visible
01 Aug -1.4 21:22:33 10° WSW 21:25:03 31° WNW 21:25:03 31° WNW visible
02 Aug 0.1 03:57:17 10° N 03:58:59 13° NE 04:00:41 10° ENE visible
02 Aug -3.0 20:33:48 10° SW 20:37:05 69° NW 20:40:25 10° NE visible
